Deelen, Netherlands

10:38 AM CET on February 21, 2018 (GMT +0100)
Deelen Air Base

Weather History for EHDL - October, 2012

Change the Weather History Date:

Saturday, October 27, 2012

  Actual Average Record
Temperature  
Mean Temperature 37 °F -  
Max Temperature 44 °F 47 °F 69 °F (2005)
Min Temperature 30 °F 38 °F 24 °F (2003)
Degree Days  
Heating Degree Days 28    
Moisture  
Dew Point 30 °F    
Average Humidity 81    
Maximum Humidity 100    
Minimum Humidity 53    
Precipitation  
Precipitation 0.00 in - - ()
Sea Level Pressure  
Sea Level Pressure 29.77 in    
Wind  
Wind Speed 6 mph ()    
Max Wind Speed 15 mph    
Max Gust Speed -    
Visibility 6.2 miles    
Events      
Averages and records for this station are not official NWS values.
T = Trace of Precipitation, MM = Missing Value Source: Averaged Metar Reports

Daily Weather History Graph

Daily Weather History Graph

Search for Another Location

Airport or City:

Trip Planner

Search our weather history database for the weather conditions in past years. The results will help you decide how hot, cold, wet, or windy it might be!

Date:

Astronomy

Oct. 27, 2012 Rise Set
Actual Time 8:23 AM CEST 6:16 PM CEST
Civil Twilight 7:47 AM CEST 6:51 PM CEST
Nautical Twilight 7:08 AM CEST 7:31 PM CEST
Astronomical Twilight 6:29 AM CEST 8:10 PM CEST
Moon 5:04 PM CEST (10/27) 5:49 AM CEST (10/27)
Length of Visible Light 11h 04m
Length of Day
9h 53m
Waxing Gibbous, 95% of the Moon is Illuminated
Oct 27
Waxing Gibbous
Oct 29
Full
Nov 7
Last Quarter
Nov 13
New
Nov 20
First Quarter

Hourly Weather History & Observations

Time (CEST) Temp. Windchill Dew Point Humidity Pressure Visibility Wind Dir Wind Speed Gust Speed Precip Events Conditions
12:25 AM 33.8 °F 27.7 °F 28.4 °F 81% 29.68 in 6.2 mi NNE 6.9 mph - N/A   Overcast
12:55 AM 33.8 °F 27.7 °F 28.4 °F 81% 29.68 in 6.2 mi NNW 6.9 mph - N/A   Overcast
1:25 AM 32.0 °F 26.4 °F 26.6 °F 80% 29.68 in 6.2 mi North 5.8 mph - N/A   Unknown
1:55 AM 32.0 °F 25.6 °F 26.6 °F 80% 29.68 in 6.2 mi North 6.9 mph - N/A   Partly Cloudy
2:25 AM 32.0 °F 28.7 °F 26.6 °F 80% 29.68 in 6.2 mi North 3.5 mph - N/A   Unknown
2:55 AM 30.2 °F 25.4 °F 26.6 °F 86% 29.65 in 6.2 mi North 4.6 mph - N/A   Unknown
3:25 AM 30.2 °F 23.4 °F 26.6 °F 86% 29.65 in 6.2 mi North 6.9 mph - N/A   Unknown
3:55 AM 32.0 °F 24.2 °F 26.6 °F 80% 29.65 in 6.2 mi North 9.2 mph - N/A   Unknown
4:25 AM 30.2 °F 21.9 °F 24.8 °F 80% 29.65 in 6.2 mi North 9.2 mph - N/A   Unknown
4:55 AM 30.2 °F 22.6 °F 26.6 °F 86% 29.65 in 6.2 mi NNE 8.1 mph - N/A   Unknown
5:25 AM 30.2 °F 24.3 °F 28.4 °F 93% 29.65 in 6.2 mi NNE 5.8 mph - N/A   Partly Cloudy
5:55 AM 32.0 °F 24.2 °F 30.2 °F 93% 29.65 in 6.2 mi NNE 9.2 mph - N/A   Scattered Clouds
6:25 AM 32.0 °F 24.8 °F 30.2 °F 93% 29.65 in 6.2 mi North 8.1 mph - N/A   Unknown
6:55 AM 32.0 °F 24.2 °F 30.2 °F 93% 29.68 in 6.2 mi NNW 9.2 mph - N/A   Scattered Clouds
7:25 AM 32.0 °F 26.4 °F 30.2 °F 93% 29.68 in 6.2 mi North 5.8 mph - N/A   Unknown
7:55 AM 30.2 °F 26.7 °F 28.4 °F 93% 29.68 in 6.2 mi NNW 3.5 mph - N/A   Unknown
8:25 AM 30.2 °F - 28.4 °F 93% 29.68 in 6.2 mi NW 2.3 mph - N/A   Partly Cloudy
8:55 AM 30.2 °F 25.4 °F 28.4 °F 93% 29.71 in 6.2 mi North 4.6 mph - N/A   Unknown
9:25 AM 32.0 °F - 30.2 °F 93% 29.71 in 6.2 mi West 2.3 mph - N/A   Unknown
9:55 AM 32.0 °F 27.5 °F 32.0 °F 100% 29.71 in 6.2 mi NNW 4.6 mph - N/A   Unknown
10:25 AM 35.6 °F 32.8 °F 33.8 °F 93% 29.71 in 6.2 mi NNW 3.5 mph - N/A   Unknown
10:55 AM 39.2 °F 33.0 °F 35.6 °F 87% 29.74 in 6.2 mi NNE 9.2 mph - N/A   Unknown
11:25 AM 41.0 °F 35.2 °F 33.8 °F 76% 29.74 in 6.2 mi NNE 9.2 mph - N/A   Unknown
11:55 AM 42.8 °F 37.0 °F 33.8 °F 70% 29.74 in 6.2 mi North 10.4 mph - N/A   Unknown
12:25 PM 41.0 °F 34.7 °F 33.8 °F 76% 29.77 in 6.2 mi North 10.4 mph - N/A   Overcast
12:55 PM 44.6 °F 40.7 °F 35.6 °F 71% 29.77 in 6.2 mi North 6.9 mph - N/A   Mostly Cloudy
1:25 PM 42.8 °F 37.0 °F 33.8 °F 70% 29.77 in 6.2 mi NNE 10.4 mph - N/A   Mostly Cloudy
1:55 PM 42.8 °F 36.6 °F 33.8 °F 70% 29.77 in 6.2 mi NNE 11.5 mph - N/A   Overcast
2:25 PM 42.8 °F 38.0 °F 37.4 °F 81% 29.80 in 6.2 mi ENE 8.1 mph - N/A   Mostly Cloudy
2:55 PM 44.6 °F 39.7 °F 32.0 °F 61% 29.80 in 6.2 mi North 9.2 mph - N/A   Partly Cloudy
3:25 PM 44.6 °F 38.4 °F 33.8 °F 66% 29.80 in 6.2 mi NNW 12.7 mph - N/A   Mostly Cloudy
3:55 PM 44.6 °F 38.1 °F 30.2 °F 57% 29.80 in 6.2 mi NNE 13.8 mph - N/A   Unknown
4:25 PM 44.6 °F 37.8 °F 30.2 °F 57% 29.83 in 6.2 mi North 15.0 mph - N/A   Partly Cloudy
4:55 PM 44.6 °F 38.4 °F 28.4 °F 53% 29.83 in - NNE 12.7 mph - N/A   Unknown
5:25 PM 44.6 °F 39.2 °F 32.0 °F 61% 29.83 in 6.2 mi North 10.4 mph - N/A   Mostly Cloudy
5:55 PM 42.8 °F 37.0 °F 30.2 °F 61% 29.86 in 6.2 mi North 10.4 mph - N/A   Partly Cloudy
6:25 PM 41.0 °F 35.2 °F 30.2 °F 65% 29.86 in 6.2 mi North 9.2 mph - N/A   Unknown
6:55 PM 37.4 °F 33.8 °F 30.2 °F 75% 29.89 in 6.2 mi North 4.6 mph - N/A   Partly Cloudy
7:25 PM 37.4 °F 32.8 °F 30.2 °F 75% 29.89 in 6.2 mi North 5.8 mph - N/A   Unknown
7:55 PM 33.8 °F 29.6 °F 28.4 °F 81% 29.92 in 6.2 mi NNW 4.6 mph - N/A   Partly Cloudy
8:25 PM 33.8 °F 30.8 °F 30.2 °F 87% 29.92 in 6.2 mi NNW 3.5 mph - N/A   Unknown
8:55 PM 32.0 °F 28.7 °F 28.4 °F 87% 29.92 in 6.2 mi NNW 3.5 mph - N/A   Unknown
9:25 PM 33.8 °F 30.8 °F 30.2 °F 87% 29.95 in 6.2 mi NNW 3.5 mph - N/A   Unknown
9:55 PM 32.0 °F 27.5 °F 28.4 °F 87% 29.95 in 6.2 mi NNW 4.6 mph - N/A   Scattered Clouds
10:25 PM 33.8 °F 28.6 °F 30.2 °F 87% 29.95 in 6.2 mi NNW 5.8 mph - N/A   Mostly Cloudy
10:55 PM 30.2 °F 26.7 °F 28.4 °F 93% 29.95 in 6.2 mi NW 3.5 mph - N/A   Mostly Cloudy
11:25 PM 32.0 °F 27.5 °F 28.4 °F 87% 29.95 in 6.2 mi NW 4.6 mph - N/A   Partly Cloudy
11:55 PM 32.0 °F 25.6 °F 30.2 °F 93% 29.98 in 6.2 mi NNW 6.9 mph - N/A   Unknown